Погода в Намах

Россия / Республика Саха (Якутия)     69°30′44″N   132°14′35″E
В апреле 2022 года жителям России запретили посещать сайт meteo.paraplan.net по решению Генеральной прокуратуры. Аудитория сайта уменьшилась в 10 раз. Владельцы сайта не видят смысла в поддержке погодного сервера в таких условиях. Сайт будет закрыт в октябре.
темп.,
°C
ветер,
м/с
пор.,
м/с
влажн.,
%
обл.,
%
осадки,
мм/ч
давл.,
гПа
погр.,
м
4 октября, вт
вт400:00−4сз3797100 0.8 1020298
03:00−7сз119887 1.2 102110
06:00−9ююз119974 0.0 102210
09:00−7ююз129477 0.0 102274
12:00−4ююз228277 0.0 1021272
15:00−4ю228017 0.0 1020229
18:00−9ююв229459 0.0 102020
21:00−10ю339351 0.0 101942
5 октября, ср
ср500:00−10ю349076 0.0 101759
03:00−10ю338990 0.0 101547
06:00−10ю3486100 0.0 101466
09:00−8ю348172 0.0 1012105
12:00−6ю237264 0.0 1010228
15:00−5ю237287 0.0 1008157
18:00−7ю228298 0.0 100815
21:00−8ююв1183100 0.0 100710
6 октября, чт
чт600:00−8юз1194100 0.1 100736
03:00−7юз2296100 0.7 100681
06:00−6з3896100 1.5 1006334
09:00−5ссз71394100 2.6 1008693
12:00−4ссз6108375 0.2 1010931
15:00−5сз6994100 0.5 1011476
18:00−6ссз61292100 0.8 1013627
21:00−9з118784 1.0 101415
7 октября, пт
пт700:00−13ююз338932 0.0 101420
03:00−14ю448885 0.0 101439
06:00−13ю5683100 0.0 101370
09:00−10ююз4680100 0.0 1012145
12:00−8ююз5775100 0.1 1010252
15:00−6ююз5976100 0.1 1009241
18:00−7ююз51080100 0.0 1007189
21:00−6ююз61181100 0.2 1006199
8 октября, сб
сб800:00−6ююз5882100 0.1 1006177
03:00−6юз4880100 0.1 1005183
06:00−6юз3480100 0.0 100579
09:00−6ю2288100 0.3 100570
12:00−4з51072100 0.8 10061082
15:00−6сз3488100 0.8 1007132
18:00−8зюз3590100 0.0 100965
21:00−6зсз71468100 0.0 1010496